DLH5RM EIDW-EDDF

Flight info

Callsign DLH5RM
Flight time N/A
Altitude 39000
Route ENDEQ Q36 ALAVA Z195 MALUD UL975 WAL M16 DOLAS DCT NAVPI DCT NOLRU DCT DIXAT
Aircraft A346/H-SDE2E3FGHIJ3J4J5M1RWXY/LB1D1

Departure

Time 2026-05-07 14:49
Airport Dublin Airport (EIDW)

Arrival

Time N/A
Airport Frankfurt Main Airport (EDDF)
Time Latitude Longitude Altitude Speed Heading
2026-05-07 14:13 53.42624 -6.24717 231 ft 0 kts 88°
2026-05-07 14:30 53.42624 -6.24720 231 ft 2 kts 88°
2026-05-07 14:30 53.42624 -6.24764 236 ft 4 kts 89°
2026-05-07 14:30 53.42624 -6.24810 239 ft 4 kts 89°
2026-05-07 14:30 53.42623 -6.24839 238 ft 3 kts 89°
2026-05-07 14:31 53.42626 -6.24874 237 ft 4 kts 118°
2026-05-07 14:31 53.42624 -6.24880 239 ft 4 kts 166°
2026-05-07 14:31 53.42563 -6.24835 235 ft 0 kts 335°
2026-05-07 14:31 53.42559 -6.24832 235 ft 0 kts 335°
2026-05-07 14:36 53.42572 -6.24842 239 ft 5 kts 335°
2026-05-07 14:36 53.42616 -6.24876 237 ft 4 kts 335°
2026-05-07 14:36 53.42657 -6.24915 231 ft 10 kts 329°
2026-05-07 14:36 53.42718 -6.24979 232 ft 13 kts 327°
2026-05-07 14:37 53.42767 -6.25057 233 ft 9 kts 289°
2026-05-07 14:37 53.42695 -6.25233 230 ft 13 kts 226°
2026-05-07 14:37 53.42616 -6.25367 229 ft 20 kts 225°
2026-05-07 14:38 53.42537 -6.25502 228 ft 13 kts 225°
2026-05-07 14:38 53.42461 -6.25630 225 ft 18 kts 225°
2026-05-07 14:38 53.42387 -6.25759 228 ft 10 kts 226°
2026-05-07 14:38 53.42357 -6.25810 228 ft 4 kts 225°
2026-05-07 14:39 53.42335 -6.25848 228 ft 0 kts 225°
2026-05-07 14:39 53.42329 -6.25858 228 ft 3 kts 225°
2026-05-07 14:39 53.42324 -6.25866 229 ft 2 kts 225°
2026-05-07 14:39 53.42301 -6.25910 229 ft 8 kts 232°
2026-05-07 14:40 53.42270 -6.26015 232 ft 12 kts 253°
2026-05-07 14:40 53.42262 -6.26157 233 ft 12 kts 272°
2026-05-07 14:40 53.42269 -6.26320 234 ft 11 kts 275°
2026-05-07 14:40 53.42274 -6.26422 239 ft 10 kts 276°
2026-05-07 14:41 53.42282 -6.26549 239 ft 12 kts 275°
2026-05-07 14:41 53.42290 -6.26700 240 ft 14 kts 275°
2026-05-07 14:41 53.42301 -6.26881 238 ft 12 kts 275°
2026-05-07 14:41 53.42308 -6.27039 239 ft 15 kts 274°
2026-05-07 14:42 53.42318 -6.27230 239 ft 18 kts 275°
2026-05-07 14:42 53.42328 -6.27418 239 ft 13 kts 275°
2026-05-07 14:42 53.42336 -6.27581 243 ft 15 kts 274°
2026-05-07 14:42 53.42345 -6.27713 245 ft 13 kts 276°
2026-05-07 14:43 53.42355 -6.27891 248 ft 14 kts 275°
2026-05-07 14:43 53.42364 -6.28055 253 ft 15 kts 276°
2026-05-07 14:43 53.42372 -6.28179 255 ft 12 kts 276°
2026-05-07 14:43 53.42380 -6.28325 257 ft 14 kts 275°
2026-05-07 14:44 53.42389 -6.28496 258 ft 14 kts 275°
2026-05-07 14:44 53.42398 -6.28675 257 ft 14 kts 275°
2026-05-07 14:44 53.42405 -6.28810 258 ft 12 kts 275°
2026-05-07 14:44 53.42410 -6.28935 257 ft 12 kts 269°
2026-05-07 14:45 53.42402 -6.28999 256 ft 6 kts 245°
2026-05-07 14:45 53.42376 -6.29048 256 ft 0 kts 213°
2026-05-07 14:45 53.42368 -6.29056 256 ft 2 kts 204°
2026-05-07 14:45 53.42361 -6.29060 256 ft 0 kts 198°
2026-05-07 14:46 53.42355 -6.29063 256 ft 2 kts 195°
2026-05-07 14:46 53.42336 -6.29068 257 ft 4 kts 184°
2026-05-07 14:46 53.42298 -6.29066 257 ft 8 kts 174°
2026-05-07 14:47 53.42248 -6.29006 257 ft 8 kts 114°
2026-05-07 14:47 53.42237 -6.28885 256 ft 13 kts 96°
2026-05-07 14:47 53.42236 -6.28871 256 ft 0 kts 95°
2026-05-07 14:47 53.42236 -6.28869 256 ft 0 kts 95°
2026-05-07 14:48 53.42236 -6.28868 256 ft 2 kts 95°
2026-05-07 14:48 53.42214 -6.28480 257 ft 68 kts 95°
2026-05-07 14:48 53.42151 -6.27328 242 ft 131 kts 95°
2026-05-07 14:48 53.42067 -6.25510 264 ft 177 kts 97°
2026-05-07 14:49 53.42005 -6.23378 768 ft 186 kts 96°
2026-05-07 14:49 53.41921 -6.21187 1459 ft 191 kts 98°
2026-05-07 14:49 53.41804 -6.18953 2166 ft 192 kts 99°
2026-05-07 14:49 53.41653 -6.16669 2642 ft 204 kts 101°
2026-05-07 14:50 53.41467 -6.14196 2996 ft 223 kts 101°
2026-05-07 14:50 53.41285 -6.11528 3539 ft 235 kts 100°
2026-05-07 14:50 53.41112 -6.08712 4072 ft 251 kts 99°
2026-05-07 14:50 53.40938 -6.05740 4638 ft 266 kts 98°
2026-05-07 14:51 53.40836 -6.02596 5375 ft 273 kts 93°
2026-05-07 14:51 53.40937 -5.99362 6262 ft 278 kts 86°
2026-05-07 14:51 53.41194 -5.96122 7141 ft 282 kts 84°
2026-05-07 14:51 53.41481 -5.92842 7980 ft 286 kts 84°
2026-05-07 14:52 53.41773 -5.89504 8845 ft 291 kts 84°
2026-05-07 14:52 53.41871 -5.88366 9148 ft 292 kts 84°
2026-05-07 14:52 53.42352 -5.82675 10532 ft 303 kts 84°
2026-05-07 14:52 53.42638 -5.79080 11060 ft 320 kts 86°
2026-05-07 14:53 53.42898 -5.75264 11535 ft 338 kts 86°
2026-05-07 14:53 53.43156 -5.71298 12058 ft 353 kts 86°
2026-05-07 14:53 53.43425 -5.67168 12894 ft 358 kts 86°
2026-05-07 14:53 53.43694 -5.62992 13833 ft 361 kts 88°
2026-05-07 14:54 53.43781 -5.58740 14463 ft 370 kts 92°
2026-05-07 14:54 53.43761 -5.54321 14840 ft 388 kts 93°
2026-05-07 14:54 53.43729 -5.49695 15205 ft 404 kts 92°
2026-05-07 14:54 53.43713 -5.44937 15879 ft 410 kts 92°
2026-05-07 14:55 53.43709 -5.40125 16695 ft 413 kts 92°
2026-05-07 14:55 53.43714 -5.35342 17444 ft 418 kts 92°
2026-05-07 14:55 53.43720 -5.30428 18182 ft 423 kts 92°
2026-05-07 14:55 53.43725 -5.25454 18838 ft 428 kts 92°
2026-05-07 14:56 53.43728 -5.20443 19497 ft 432 kts 92°
2026-05-07 14:56 53.43689 -5.15375 20150 ft 435 kts 94°
2026-05-07 14:56 53.43545 -5.10275 20821 ft 439 kts 95°
2026-05-07 14:56 53.43379 -5.05153 21471 ft 442 kts 95°
2026-05-07 14:57 53.43208 -4.99997 22118 ft 446 kts 95°
2026-05-07 14:57 53.43033 -4.94712 22775 ft 450 kts 95°
2026-05-07 14:57 53.42859 -4.89446 23412 ft 454 kts 95°
2026-05-07 14:57 53.42683 -4.84122 23955 ft 458 kts 95°
2026-05-07 14:58 53.42508 -4.78832 24497 ft 461 kts 95°
2026-05-07 14:58 53.42328 -4.73447 25080 ft 463 kts 95°
2026-05-07 14:58 53.42145 -4.68044 25653 ft 465 kts 95°
2026-05-07 14:58 53.41958 -4.62611 26214 ft 467 kts 96°
2026-05-07 14:59 53.41768 -4.57147 26772 ft 469 kts 96°
2026-05-07 14:59 53.41574 -4.51675 27306 ft 471 kts 96°
2026-05-07 14:59 53.41377 -4.46170 27845 ft 474 kts 96°
2026-05-07 14:59 53.41200 -4.41292 28312 ft 476 kts 96°
2026-05-07 15:00 53.40998 -4.35778 28939 ft 475 kts 96°
2026-05-07 15:00 53.40793 -4.30229 29790 ft 470 kts 96°
2026-05-07 15:00 53.40590 -4.24789 30574 ft 466 kts 96°
2026-05-07 15:00 53.40385 -4.19384 31279 ft 462 kts 96°
2026-05-07 15:01 53.40175 -4.13972 31946 ft 459 kts 96°
2026-05-07 15:01 53.39966 -4.08640 32588 ft 457 kts 97°
2026-05-07 15:01 53.39764 -4.03333 33217 ft 455 kts 96°
2026-05-07 15:01 53.39678 -3.98006 33853 ft 454 kts 93°
2026-05-07 15:02 53.39753 -3.92761 34383 ft 453 kts 90°
2026-05-07 15:02 53.39980 -3.87398 34811 ft 454 kts 88°
2026-05-07 15:02 53.40251 -3.82104 35166 ft 456 kts 88°
2026-05-07 15:02 53.40527 -3.76792 35510 ft 457 kts 88°
2026-05-07 15:03 53.40799 -3.71473 35849 ft 458 kts 88°
2026-05-07 15:03 53.41052 -3.66104 36197 ft 459 kts 89°
2026-05-07 15:03 53.41154 -3.60752 36525 ft 459 kts 92°
2026-05-07 15:03 53.41079 -3.55394 36844 ft 459 kts 95°
2026-05-07 15:04 53.40863 -3.50041 37151 ft 460 kts 96°
2026-05-07 15:04 53.40624 -3.44715 37426 ft 461 kts 96°
2026-05-07 15:04 53.40377 -3.39309 37654 ft 464 kts 96°
2026-05-07 15:04 53.40127 -3.33851 37875 ft 466 kts 96°
2026-05-07 15:05 53.39877 -3.28403 38091 ft 469 kts 96°
2026-05-07 15:05 53.39625 -3.22925 38311 ft 471 kts 96°
2026-05-07 15:05 53.39369 -3.17435 38509 ft 473 kts 96°
2026-05-07 15:05 53.39115 -3.11925 38705 ft 475 kts 96°
2026-05-07 15:06 53.38900 -3.06451 38854 ft 477 kts 95°
2026-05-07 15:06 53.38695 -3.00816 38999 ft 478 kts 95°
2026-05-07 15:06 53.38285 -2.89588 39013 ft 480 kts 95°
2026-05-07 15:07 53.37856 -2.78382 39016 ft 480 kts 95°
2026-05-07 15:07 53.37411 -2.67181 39013 ft 480 kts 95°
2026-05-07 15:08 53.36954 -2.55962 39017 ft 480 kts 96°
2026-05-07 15:08 53.36487 -2.44728 39017 ft 480 kts 96°
2026-05-07 15:09 53.36012 -2.33594 39017 ft 481 kts 96°
2026-05-07 15:09 53.35306 -2.22386 39017 ft 480 kts 101°
2026-05-07 15:10 53.34185 -2.11352 39017 ft 479 kts 101°
2026-05-07 15:10 53.33029 -2.00235 39022 ft 480 kts 101°
2026-05-07 15:11 53.31877 -1.89195 39028 ft 480 kts 101°
2026-05-07 15:11 53.30712 -1.78094 39034 ft 480 kts 102°
2026-05-07 15:12 53.29550 -1.67140 39040 ft 480 kts 102°
2026-05-07 15:12 53.28366 -1.56086 39043 ft 480 kts 102°
2026-05-07 15:13 53.27176 -1.45084 39044 ft 480 kts 102°
2026-05-07 15:13 53.25970 -1.34028 39047 ft 480 kts 102°
2026-05-07 15:14 53.24761 -1.23036 39048 ft 480 kts 102°
2026-05-07 15:14 53.23539 -1.12023 39050 ft 480 kts 102°
2026-05-07 15:15 53.22309 -1.01034 39048 ft 480 kts 102°
2026-05-07 15:15 53.21063 -0.90007 39047 ft 481 kts 102°
2026-05-07 15:16 53.19809 -0.79012 39048 ft 481 kts 102°
2026-05-07 15:16 53.18550 -0.68078 39046 ft 481 kts 102°
2026-05-07 15:17 53.17272 -0.57069 39046 ft 481 kts 102°
2026-05-07 15:17 53.15988 -0.46092 39044 ft 482 kts 102°
2026-05-07 15:18 53.14686 -0.35056 39044 ft 482 kts 103°
2026-05-07 15:18 53.13391 -0.24162 39045 ft 482 kts 103°
2026-05-07 15:19 53.12076 -0.13198 39045 ft 482 kts 103°
2026-05-07 15:19 53.10751 -0.02244 39043 ft 482 kts 103°
2026-05-07 15:20 53.09416 0.08705 39048 ft 482 kts 103°
2026-05-07 15:20 53.08072 0.19644 39054 ft 482 kts 103°
2026-05-07 15:21 53.06722 0.30538 39061 ft 482 kts 103°
2026-05-07 15:21 53.05351 0.41513 39071 ft 482 kts 103°
2026-05-07 15:22 53.03977 0.52431 39070 ft 482 kts 103°
2026-05-07 15:22 53.02600 0.63288 39072 ft 482 kts 103°
2026-05-07 15:23 53.01202 0.74229 39074 ft 482 kts 103°
2026-05-07 15:23 52.99797 0.85134 39074 ft 482 kts 103°
2026-05-07 15:24 52.98348 0.96047 39079 ft 482 kts 105°
2026-05-07 15:24 52.96386 1.06635 39078 ft 481 kts 112°
2026-05-07 15:25 52.94034 1.17031 39082 ft 481 kts 112°
2026-05-07 15:25 52.91668 1.27409 39081 ft 481 kts 112°
2026-05-07 15:26 52.89292 1.37810 39082 ft 481 kts 112°
2026-05-07 15:26 52.86931 1.48109 39082 ft 480 kts 112°
2026-05-07 15:27 52.84551 1.58448 39086 ft 481 kts 112°
2026-05-07 15:27 52.82151 1.68821 39088 ft 481 kts 112°
2026-05-07 15:28 52.80363 1.76518 39095 ft 481 kts 112°
2026-05-07 15:28 52.80231 1.77084 39090 ft 481 kts 112°
2026-05-07 15:29 52.77822 1.87405 39097 ft 481 kts 112°
2026-05-07 15:29 52.75400 1.97733 39097 ft 481 kts 112°
2026-05-07 15:30 52.72979 2.08004 39096 ft 481 kts 112°
2026-05-07 15:30 52.70539 2.18312 39096 ft 481 kts 112°
2026-05-07 15:31 52.68095 2.28587 39097 ft 481 kts 113°
2026-05-07 15:31 52.65630 2.38895 39095 ft 481 kts 113°
2026-05-07 15:32 52.63169 2.49149 39094 ft 481 kts 113°
2026-05-07 15:32 52.60714 2.59321 39095 ft 481 kts 113°
2026-05-07 15:33 52.58231 2.69567 39092 ft 481 kts 113°
2026-05-07 15:33 52.55736 2.79808 39093 ft 481 kts 113°
2026-05-07 15:34 52.53013 2.89896 39096 ft 480 kts 117°
2026-05-07 15:34 52.50152 2.99738 39098 ft 481 kts 117°
2026-05-07 15:35 52.47250 3.09684 39095 ft 481 kts 117°
2026-05-07 15:35 52.44349 3.19593 39099 ft 481 kts 117°
2026-05-07 15:36 52.41443 3.29480 39100 ft 481 kts 117°
2026-05-07 15:36 52.38556 3.39266 39096 ft 481 kts 117°
2026-05-07 15:37 52.35611 3.49204 39093 ft 481 kts 117°
2026-05-07 15:37 52.32674 3.59081 39103 ft 481 kts 117°
2026-05-07 15:38 52.29730 3.68933 39088 ft 481 kts 117°
2026-05-07 15:38 52.27281 3.77100 39099 ft 481 kts 117°
2026-05-07 15:39 52.26051 3.81194 39079 ft 481 kts 117°
2026-05-07 15:39 52.23107 3.90957 39088 ft 481 kts 117°
2026-05-07 15:40 52.20115 4.00841 39085 ft 482 kts 118°
2026-05-07 15:40 52.17095 4.10777 39079 ft 482 kts 118°
2026-05-07 15:41 52.14079 4.20658 39078 ft 482 kts 118°
2026-05-07 15:41 52.11194 4.30073 39073 ft 482 kts 118°
2026-05-07 15:42 52.08905 4.37517 39072 ft 482 kts 118°
2026-05-07 15:42 52.05892 4.47281 39071 ft 482 kts 118°
2026-05-07 15:43 52.02774 4.57343 39072 ft 482 kts 118°
2026-05-07 15:43 51.99538 4.67739 39070 ft 482 kts 118°
2026-05-07 15:44 51.96448 4.77631 39066 ft 482 kts 118°
2026-05-07 15:44 51.93328 4.87573 39063 ft 483 kts 118°
2026-05-07 15:45 51.90238 4.97384 39061 ft 482 kts 118°
2026-05-07 15:45 51.87127 5.07219 39060 ft 483 kts 118°
2026-05-07 15:46 51.82421 5.22024 39059 ft 482 kts 119°
2026-05-07 15:47 51.79319 5.31736 39050 ft 482 kts 119°
2026-05-07 15:47 51.76249 5.41311 39049 ft 482 kts 119°
2026-05-07 15:48 51.73065 5.51197 39044 ft 482 kts 119°
2026-05-07 15:48 51.69946 5.60846 39045 ft 482 kts 119°
2026-05-07 15:49 51.66882 5.70288 39044 ft 482 kts 119°
2026-05-07 15:49 51.63738 5.79940 39044 ft 483 kts 119°
2026-05-07 15:49 51.62182 5.84703 38859 ft 483 kts 119°
2026-05-07 15:50 51.60579 5.89602 38621 ft 483 kts 119°
2026-05-07 15:50 51.58937 5.94609 38322 ft 483 kts 119°
2026-05-07 15:50 51.57292 5.99615 38023 ft 483 kts 119°
2026-05-07 15:50 51.55718 6.04398 37764 ft 483 kts 119°
2026-05-07 15:51 51.54124 6.09228 37480 ft 483 kts 119°
2026-05-07 15:51 51.52535 6.14034 37201 ft 483 kts 119°
2026-05-07 15:51 51.50923 6.18982 36934 ft 484 kts 117°
2026-05-07 15:51 51.49661 6.23296 36702 ft 484 kts 115°
2026-05-07 15:52 51.48564 6.27543 36474 ft 485 kts 112°
2026-05-07 15:52 51.47312 6.32645 36223 ft 485 kts 112°
2026-05-07 15:52 51.46119 6.37536 35989 ft 485 kts 112°
2026-05-07 15:52 51.45029 6.41995 35755 ft 486 kts 112°
2026-05-07 15:53 51.43784 6.47069 35507 ft 485 kts 112°
2026-05-07 15:53 51.42540 6.52119 35257 ft 478 kts 112°
2026-05-07 15:53 51.41324 6.57040 35004 ft 474 kts 112°
2026-05-07 15:53 51.40582 6.60033 34868 ft 474 kts 112°
2026-05-07 15:54 51.39261 6.65353 34589 ft 474 kts 112°
2026-05-07 15:54 51.38037 6.70268 34251 ft 474 kts 112°
2026-05-07 15:54 51.36749 6.75428 33723 ft 475 kts 112°
2026-05-07 15:54 51.35528 6.80312 33151 ft 475 kts 112°
2026-05-07 15:55 51.34328 6.85103 32548 ft 475 kts 112°
2026-05-07 15:55 51.33054 6.90181 31906 ft 475 kts 112°
2026-05-07 15:55 51.31884 6.94830 31305 ft 475 kts 112°
2026-05-07 15:55 51.30627 6.99815 30647 ft 475 kts 112°
2026-05-07 15:56 51.29324 7.04965 29913 ft 476 kts 112°
2026-05-07 15:56 51.28024 7.09730 29138 ft 476 kts 119°
2026-05-07 15:56 51.25988 7.14292 28349 ft 474 kts 134°
2026-05-07 15:56 51.23605 7.17566 27704 ft 470 kts 147°
2026-05-07 15:57 51.20758 7.20069 27345 ft 470 kts 155°
2026-05-07 15:57 51.17854 7.22288 26914 ft 467 kts 156°
2026-05-07 15:57 51.14854 7.24562 26464 ft 463 kts 155°
2026-05-07 15:57 51.12151 7.26652 26041 ft 460 kts 155°
2026-05-07 15:58 51.09245 7.28983 25592 ft 456 kts 154°
2026-05-07 15:58 51.06426 7.31315 25160 ft 453 kts 154°
2026-05-07 15:58 51.03886 7.33424 25048 ft 454 kts 154°
2026-05-07 15:58 51.00972 7.35836 25052 ft 455 kts 154°
2026-05-07 15:59 50.98108 7.38197 25043 ft 454 kts 154°
2026-05-07 15:59 50.95448 7.40387 24780 ft 448 kts 154°
2026-05-07 15:59 50.92652 7.42684 24058 ft 449 kts 154°
2026-05-07 15:59 50.89781 7.45037 23424 ft 447 kts 154°
2026-05-07 16:00 50.87192 7.47155 22866 ft 443 kts 154°
2026-05-07 16:00 50.84575 7.49293 22262 ft 439 kts 154°
2026-05-07 16:00 50.81626 7.51699 21614 ft 435 kts 154°
2026-05-07 16:00 50.78829 7.53979 21005 ft 432 kts 154°
2026-05-07 16:01 50.76136 7.56172 20423 ft 428 kts 154°
2026-05-07 16:01 50.73476 7.58335 19854 ft 425 kts 154°
2026-05-07 16:01 50.71725 7.59758 19475 ft 423 kts 154°
2026-05-07 16:01 50.68439 7.62424 18795 ft 419 kts 154°
2026-05-07 16:02 50.65797 7.64565 18224 ft 416 kts 154°
2026-05-07 16:02 50.63227 7.66646 17603 ft 412 kts 154°
2026-05-07 16:02 50.60544 7.68811 17071 ft 408 kts 154°
2026-05-07 16:02 50.58057 7.70813 16470 ft 405 kts 154°
2026-05-07 16:03 50.55514 7.72860 15923 ft 401 kts 154°
2026-05-07 16:03 50.53186 7.74733 15411 ft 399 kts 154°
2026-05-07 16:03 50.50661 7.76762 14854 ft 396 kts 154°
2026-05-07 16:03 50.48202 7.78735 14335 ft 393 kts 154°
2026-05-07 16:04 50.45617 7.80610 14024 ft 390 kts 163°
2026-05-07 16:04 50.42758 7.81260 14031 ft 389 kts 180°
2026-05-07 16:04 50.40049 7.81222 14035 ft 389 kts 183°
2026-05-07 16:04 50.37354 7.81085 14036 ft 389 kts 183°
2026-05-07 16:05 50.34534 7.80924 14030 ft 389 kts 183°
2026-05-07 16:05 50.31816 7.80768 14020 ft 389 kts 183°
2026-05-07 16:05 50.29082 7.80613 14021 ft 389 kts 183°
2026-05-07 16:05 50.26341 7.80458 14021 ft 389 kts 183°
2026-05-07 16:06 50.23559 7.80302 14022 ft 389 kts 183°
2026-05-07 16:06 50.20837 7.80149 14024 ft 389 kts 183°
2026-05-07 16:06 50.19137 7.80054 14021 ft 389 kts 183°
2026-05-07 16:06 50.15616 7.79870 14012 ft 389 kts 181°
2026-05-07 16:07 50.12926 7.80445 13997 ft 392 kts 164°
2026-05-07 16:07 50.10368 7.82427 14007 ft 395 kts 145°
2026-05-07 16:07 50.08317 7.85674 14010 ft 397 kts 126°
2026-05-07 16:07 50.07086 7.89639 14019 ft 398 kts 107°
2026-05-07 16:08 50.06717 7.94032 14027 ft 399 kts 88°
2026-05-07 16:08 50.07165 7.98317 14041 ft 398 kts 76°
2026-05-07 16:08 50.07897 8.02564 14038 ft 398 kts 73°
2026-05-07 16:08 50.08509 8.05913 14039 ft 398 kts 73°
2026-05-07 16:09 50.09256 8.09965 14038 ft 398 kts 73°
2026-05-07 16:09 50.10018 8.14095 14044 ft 398 kts 73°
2026-05-07 16:09 50.10804 8.18344 14047 ft 398 kts 73°
2026-05-07 16:09 50.11570 8.22499 14045 ft 398 kts 73°
2026-05-07 16:10 50.12102 8.25389 14044 ft 398 kts 73°
2026-05-07 16:10 50.13142 8.31051 14046 ft 397 kts 73°
2026-05-07 16:10 50.13988 8.35676 14044 ft 398 kts 73°
2026-05-07 16:10 50.14763 8.39927 14045 ft 398 kts 73°
2026-05-07 16:11 50.15536 8.44175 14041 ft 397 kts 73°
2026-05-07 16:11 50.16174 8.47692 14042 ft 397 kts 73°
2026-05-07 16:11 50.16338 8.48595 14043 ft 397 kts 73°
2026-05-07 16:11 50.17381 8.54344 14037 ft 397 kts 73°